TimeMST,TemperatureF,Dew PointF,Humidity,Sea Level PressureIn,VisibilityMPH,Wind Direction,Wind SpeedMPH,Gust SpeedMPH,PrecipitationIn,Events,Conditions,WindDirDegrees,DateUTC
12:58 AM,17.4,8.1,67,30.03,10.0,ENE,3.5,-,N/A,,Partly Cloudy,60,2012-12-11 07:58:00
1:06 AM,17.6,8.6,68,29.92,10.0,North,5.8,-,N/A,Snow,Light Snow,360,2012-12-11 08:06:00
1:28 AM,19.4,12.2,74,29.93,10.0,NNW,10.4,-,N/A,,Scattered Clouds,330,2012-12-11 08:28:00
1:43 AM,21.2,12.2,68,29.93,10.0,North,10.4,-,N/A,,Mostly Cloudy,350,2012-12-11 08:43:00
1:58 AM,19.4,12.2,74,30.04,10.0,North,10.4,-,0.00,,Mostly Cloudy,350,2012-12-11 08:58:00
2:52 AM,15.8,12.2,86,29.93,10.0,North,6.9,-,N/A,Snow,Light Snow,10,2012-12-11 09:52:00
2:58 AM,16.7,11.7,81,30.06,10.0,North,6.9,-,0.00,Snow,Light Snow,10,2012-12-11 09:58:00
3:08 AM,17.6,12.2,79,29.93,10.0,NNE,8.1,-,N/A,Snow,Light Snow,30,2012-12-11 10:08:00
3:23 AM,15.8,10.4,79,29.93,10.0,North,5.8,-,N/A,Snow,Light Snow,10,2012-12-11 10:23:00
3:24 AM,15.8,10.4,79,29.93,10.0,North,5.8,-,N/A,,Scattered Clouds,10,2012-12-11 10:24:00
3:58 AM,9.5,5.2,83,30.11,10.0,NE,3.5,-,0.00,,Clear,50,2012-12-11 10:58:00
4:58 AM,9.0,4.6,83,30.13,10.0,North,8.1,-,N/A,,Clear,10,2012-12-11 11:58:00
5:58 AM,6.6,2.3,82,30.14,10.0,NNE,5.8,-,N/A,,Clear,30,2012-12-11 12:58:00
6:58 AM,3.9,-0.6,82,30.17,10.0,NE,6.9,-,N/A,,Clear,40,2012-12-11 13:58:00
7:58 AM,4.3,-0.9,79,30.21,10.0,North,6.9,-,N/A,,Clear,360,2012-12-11 14:58:00
8:58 AM,12.9,6.4,75,30.17,10.0,NNW,3.5,-,N/A,,Clear,340,2012-12-11 15:58:00
9:58 AM,23.9,12.4,62,30.12,10.0,SSW,3.5,-,N/A,,Clear,210,2012-12-11 16:58:00
10:58 AM,25.7,11.5,55,30.09,10.0,SSE,8.1,-,N/A,,Clear,150,2012-12-11 17:58:00
11:58 AM,26.8,10.9,51,30.04,10.0,South,8.1,-,N/A,,Clear,170,2012-12-11 18:58:00
12:58 PM,28.4,11.3,49,30.00,10.0,South,9.2,-,N/A,,Clear,170,2012-12-11 19:58:00
1:58 PM,30.0,12.6,48,29.95,10.0,SSE,10.4,-,N/A,,Clear,150,2012-12-11 20:58:00
2:58 PM,29.3,14.4,54,29.97,10.0,SSE,10.4,-,N/A,,Clear,160,2012-12-11 21:58:00
3:58 PM,26.8,15.1,61,30.02,10.0,SSE,10.4,-,N/A,,Clear,160,2012-12-11 22:58:00
4:58 PM,22.8,12.7,65,30.04,10.0,SE,8.1,-,N/A,,Clear,130,2012-12-11 23:58:00
5:58 PM,22.6,9.0,56,30.05,10.0,Variable,2.3,-,N/A,,Clear,0,2012-12-12 00:58:00
6:58 PM,17.4,8.4,68,30.08,10.0,North,3.5,-,N/A,,Clear,10,2012-12-12 01:58:00
7:58 PM,16.2,6.1,65,30.09,10.0,Variable,6.9,-,N/A,,Clear,0,2012-12-12 02:58:00
8:58 PM,25.9,8.8,48,29.98,10.0,Variable,5.8,-,N/A,,Clear,0,2012-12-12 03:58:00
9:58 PM,33.6,6.8,33,29.92,10.0,NW,10.4,17.3,N/A,,Mostly Cloudy,310,2012-12-12 04:58:00
10:54 PM,32.0,6.8,35,29.82,10.0,West,20.7,24.2,N/A,,Scattered Clouds,260,2012-12-12 05:54:00
10:58 PM,34.0,7.5,33,29.87,10.0,West,18.4,24.2,N/A,,Partly Cloudy,260,2012-12-12 05:58:00
11:44 PM,37.4,6.8,28,29.81,10.0,WSW,16.1,23.0,N/A,,Clear,240,2012-12-12 06:44:00
11:58 PM,35.8,7.9,31,29.85,10.0,West,5.8,20.7,N/A,,Clear,280,2012-12-12 06:58:00